International Virtual Aviation Organisation

Russian Federation and Kazakhstan MCD

 

Карточка аэропорта UATT

Внимание!
Информация на этой странице в стадии наполнения.
Если вы не увидели какой-то информации, или заметили неточность - пожалуйста сообщите нам!
Спасибо!
Команда RU-STAFF
Название аэропортаАктобе
Название аэропорта (англ.)Aktobe
Превышение738 ft. (224.9 m.)
Координаты50°14.748', 57°12.402'
Высота перехода2710
Эшелон переходаFL40
Коды ответчика3440-3447, 3540-3547
Зона ОрВДАктобе РПИ (UATT)
Данные METARUATT 140730Z 28009MPS 9999 FEW010 BKN023CB 13/08 Q1013 R31/0///60 NOSIG RMK QFE740/0987
Проноз погоды (TAF)UATT 140500Z 1406/1506 26005MPS 9999 BKN020 TX14/1412Z TN03/1501Z TEMPO 1406/1409 25010MPS -SHRA BKN011 BKN020CB TEMPO 1409/1412 28012MPS FM141500 24003MPS 3100 BR BKN011
NOTAMshow/hide NOTAM
AWOS   TABLE

Информация о ВПП

ВПП Длина ВПП (м.) Покрытие Курс ВПП Частота ILS
133202Бетон135111.7
313202Бетон315111.7

Диспетчерские позиции




Спутниковое изображение